Location: Caltech
(34.1382°N, 118.1253°W)
Time: 20:55:40
(UTC-07:00)

Cosmos 1606 - Visible Passes

Search period start: 27 May 2015 00:00
Search period end: 06 June 2015 00:00
Orbit: 513 x 539 km, 82.5° (Epoch: 27 May)

Date Brightness Start Highest point End Pass type
(mag) Time Alt. Az. Time Alt. Az. Time Alt. Az.
27 May 6.0 04:30:16 10° NE 04:32:04 13° ENE 04:34:04 10° ESE visible
28 May 6.1 04:18:58 10° NE 04:20:18 12° ENE 04:21:51 10° E visible
29 May 6.3 04:07:58 10° ENE 04:08:32 10° ENE 04:09:21 10° E visible
01 Jun 2.8 05:05:43 10° NNW 05:09:38 61° W 05:13:31 10° S visible
02 Jun 2.7 04:53:58 10° NNW 04:57:55 70° W 05:01:50 10° S visible
03 Jun 2.7 04:42:12 10° N 04:46:11 79° W 04:50:07 10° S visible
04 Jun 2.7 04:30:28 10° N 04:34:26 89° W 04:38:23 10° S visible
05 Jun 2.8 04:18:43 10° N 04:22:41 80° E 04:26:38 10° S visible
